User: anonymous   Login
Location: Bothwell
(42.3833°S, 147.0000°E)
Time: 23:05:50
(UTC+11:00)
Language:

CUTE 1.7 + AOD 2 - Orbit

View from above orbital plane
View from above orbital plane
View from above satellite
View from above satellite

Ground track
Ground track

The orbit data is extracted from the following two-line orbital elements,

1 32785U 08021C   23029.73754492  .00003405  00000-0  35158-3 0  9990
2 32785  97.6885 358.9514 0011905 194.8723 165.2146 14.90765720800188
Epoch (UTC): 29 January 2023 17:42:03
Eccentricity: 0.0011905
inclination: 97.6885°
perigee height: 587 km
apogee height: 604 km
right ascension of ascending node: 358.9514°
argument of perigee: 194.8723°
revolutions per day: 14.90765720
mean anomaly at epoch: 165.2146°
orbit number at epoch: 80018

The dashed part of the orbit path shows where the satellite is in the earth's shadow,  

DLR